Theta_e
321 321 320 320 319 318 317 317 316 316 316 315 314 313 313 313 312 312 311 310 310 311 311 311 309 308 307 308 308 307 307 306 306 305 305 305 305 305 305 305 305 305 305 305 305 304 305 305 306 306 306 306 307 307 308 309 310 311 312 315 319 322 325 326 325 324 324 325 326 326 326 326 326 326 326 326 326 327 327 327 328 327 326 324 324
321 321 321 320 319 319 318 317 316 316 316 315 313 312 312 313 312 311 309 308 310 310 310 308 307 307 307 308 307 307 307 306 306 306 305 305 305 305 305 305 305 305 305 305 305 304 304 305 305 306 306 306 306 306 306 307 308 309 310 312 315 318 321 324 325 325 326 326 326 326 326 326 326 326 326 326 326 327 327 327 328 327 326 324 324
321 321 321 320 320 319 319 318 317 316 315 314 313 312 312 312 312 310 308 309 310 309 307 307 307 308 308 308 307 306 306 305 305 305 305 305 304 304 304 304 304 304 304 304 305 305 305 305 305 305 305 306 306 306 306 306 306 307 308 309 311 313 317 320 323 324 325 326 326 326 326 326 327 326 326 326 326 326 326 327 327 326 326 325 324
321 321 321 320 320 319 319 318 317 315 314 313 312 312 312 312 311 309 308 308 308 308 308 308 308 308 308 307 307 306 305 305 304 304 304 304 303 303 303 303 303 303 303 303 304 304 304 305 305 305 305 305 305 305 305 305 306 306 307 308 309 311 313 316 319 322 324 325 325 326 326 326 327 327 326 327 326 326 326 326 326 326 326 325 325
322 321 321 320 319 319 319 318 317 315 314 313 312 311 311 311 310 308 308 308 308 308 308 308 308 308 307 307 306 305 304 304 304 303 303 303 303 303 303 303 302 302 302 303 303 303 304 304 304 304 304 305 305 305 305 305 305 305 305 306 307 309 311 313 316 319 322 323 323 324 325 326 326 326 326 326 326 326 326 326 326 326 326 326 326
321 320 320 320 319 319 318 317 316 315 314 313 312 311 310 310 309 309 308 308 309 309 309 309 308 308 307 306 305 304 304 303 303 303 303 303 303 302 302 302 302 302 302 302 302 303 303 303 303 303 304 304 304 304 305 305 305 305 305 305 306 307 309 311 313 315 318 321 322 322 323 324 325 325 326 326 326 326 325 325 326 326 326 326 325
321 319 319 319 318 318 318 317 316 315 314 313 312 311 310 310 309 309 309 309 310 309 309 309 308 307 306 305 304 304 303 303 303 302 302 302 302 301 302 302 302 302 302 302 302 302 303 303 303 303 303 303 303 303 304 304 305 305 305 305 305 306 307 308 309 309 312 316 320 322 323 323 323 324 325 325 325 325 324 323 323 323 324 324 324
322 320 319 317 317 317 317 316 316 315 314 313 312 311 311 311 310 310 310 310 310 310 309 308 307 306 305 304 303 303 303 302 302 302 302 301 301 301 301 300 300 300 301 301 301 302 302 302 302 302 303 303 303 303 304 304 305 305 305 305 305 305 306 306 307 307 308 311 315 319 322 323 322 322 323 323 321 321 323 322 321 321 322 323 323
321 319 318 317 316 315 315 315 315 314 313 312 312 312 311 311 311 310 310 310 310 309 308 307 307 305 304 303 303 303 302 302 302 301 301 301 300 300 299 299 299 299 299 299 299 299 300 300 301 301 302 302 302 302 302 303 303 303 303 304 304 305 305 305 305 306 307 309 311 314 318 322 322 321 321 321 321 321 321 320 319 320 320 320 320
320 319 317 316 315 314 314 314 314 314 313 312 312 312 311 311 311 310 310 310 309 308 307 307 305 304 303 303 303 302 302 302 301 301 300 300 299 299 299 299 299 298 298 298 298 298 298 298 299 299 300 300 300 300 301 301 301 301 301 302 303 303 304 305 305 305 306 307 308 310 313 317 320 320 319 320 322 321 319 318 318 317 316 314 315
319 318 317 316 316 314 314 314 314 313 313 312 312 312 311 311 311 311 310 309 308 307 307 306 304 304 303 302 302 301 301 300 300 299 299 299 299 299 299 299 299 298 298 298 298 298 297 297 297 297 298 298 299 299 300 300 300 300 301 301 301 302 303 303 304 305 305 306 307 308 310 312 315 318 319 319 320 319 318 317 317 315 312 311 312
318 317 316 316 316 315 314 314 314 313 312 312 312 312 311 311 311 310 309 308 307 307 306 305 304 303 302 301 301 300 300 299 299 299 299 299 299 299 299 299 299 298 298 298 297 297 297 297 297 296 297 297 297 297 298 298 299 299 300 300 300 301 301 302 302 303 304 305 306 307 308 309 311 314 318 319 319 318 317 316 315 314 313 312 312
317 316 315 315 315 314 314 314 313 313 313 312 312 311 311 310 309 308 308 307 306 306 304 303 303 302 301 300 300 299 299 298 298 298 298 298 298 298 298 298 298 297 297 297 296 296 296 296 296 296 296 296 296 296 296 297 297 298 298 299 300 300 300 300 301 302 302 304 305 306 307 308 310 311 314 317 318 317 315 313 313 313 313 312 313
315 315 314 314 314 314 313 313 313 312 312 311 311 311 310 309 308 307 307 306 305 304 303 302 301 300 300 299 298 298 297 297 297 297 297 297 297 297 297 296 296 296 295 295 295 295 295 295 295 295 295 295 295 295 296 296 296 296 297 298 298 299 300 300 301 301 302 303 305 306 307 308 309 310 310 313 316 317 315 313 313 312 311 311 311
314 314 314 313 314 313 313 312 312 312 311 311 310 309 308 308 307 306 305 305 304 302 301 301 300 299 298 297 297 296 295 295 295 295 295 295 295 295 295 295 295 294 294 294 294 294 294 294 294 294 294 294 294 295 295 295 295 296 296 296 297 297 298 299 300 301 301 303 304 305 306 306 308 308 309 311 313 315 316 315 313 311 310 309 309
313 313 313 313 313 313 312 312 312 311 310 309 309 308 307 307 306 305 305 303 302 301 300 299 299 298 297 296 294 294 293 293 294 294 294 294 294 294 294 294 294 294 294 293 293 293 293 294 294 294 294 294 294 294 294 294 295 295 296 296 296 296 297 297 298 299 300 301 302 302 303 304 305 306 307 308 311 314 316 314 312 310 308 307 307
312 312 312 312 311 312 312 311 311 310 309 308 307 307 306 306 305 304 303 301 301 300 299 298 298 297 296 294 293 293 293 293 293 294 294 294 294 293 293 293 293 293 293 293 293 293 293 293 293 293 293 293 293 294 294 294 294 295 296 296 296 296 297 297 297 298 298 299 300 300 300 301 303 304 305 306 308 313 314 312 309 308 307 306 306
312 312 312 311 311 311 311 310 309 308 307 307 306 306 305 305 303 302 301 301 300 299 298 298 297 296 294 293 293 293 293 293 293 293 294 294 293 293 293 293 293 292 292 292 292 292 292 292 293 293 293 293 293 293 293 294 294 295 295 296 296 297 297 297 297 298 298 298 299 299 300 300 302 303 306 307 309 311 312 312 311 309 307 307 307
310 310 310 310 310 310 309 308 308 307 306 306 305 305 304 303 302 301 300 299 298 297 298 298 296 294 293 293 292 292 292 292 293 293 293 293 293 293 292 292 292 292 292 292 292 292 292 292 292 292 292 292 292 293 293 293 294 294 295 295 296 297 297 297 298 298 298 298 299 299 300 300 302 304 306 309 310 311 312 313 313 310 308 307 307
309 309 309 310 309 309 308 307 306 306 305 305 304 303 302 301 300 300 299 297 297 298 298 297 296 294 293 292 291 291 291 292 292 292 292 292 292 292 292 292 292 291 291 291 291 291 291 291 291 291 291 292 292 292 292 293 293 294 294 295 295 296 296 297 298 298 298 299 299 299 300 300 302 303 305 307 309 310 311 313 314 312 310 309 307
309 309 310 309 308 307 307 306 306 305 304 304 303 301 300 299 298 298 298 298 298 298 298 297 296 295 293 291 290 290 290 291 292 292 292 292 292 292 292 291 291 291 291 291 291 291 291 291 291 291 291 291 291 292 292 292 292 293 294 294 295 295 296 296 297 298 298 298 298 299 299 300 300 301 302 304 306 308 310 312 313 313 313 311 309
308 308 308 307 306 306 305 305 304 303 302 301 300 299 298 298 299 299 299 299 299 298 297 296 296 294 292 290 290 290 290 291 291 291 292 292 291 291 291 291 291 291 290 290 290 290 290 290 290 291 291 291 291 291 291 292 292 292 293 294 294 295 295 296 296 297 297 297 298 298 298 299 299 299 300 302 304 307 309 311 312 313 313 313 312
307 306 305 305 305 304 303 302 301 300 299 299 299 299 299 299 299 299 300 299 298 297 296 296 295 294 291 290 290 290 290 291 291 291 291 291 291 291 291 291 291 291 290 290 290 290 290 290 290 290 290 290 291 291 291 291 291 292 292 293 293 294 295 295 296 296 296 297 297 297 298 298 298 299 299 300 302 305 308 310 312 313 313 313 313
304 304 304 304 303 301 300 299 299 299 299 299 299 298 298 299 299 300 300 298 297 297 296 296 295 293 291 291 290 290 290 291 291 291 291 291 291 291 291 291 291 291 290 290 290 290 290 290 290 290 290 290 290 290 291 291 291 291 292 292 292 293 294 295 295 296 296 296 296 297 297 297 298 298 299 300 301 303 306 309 311 312 313 312 311
303 302 302 301 300 299 299 298 299 299 299 298 298 298 298 299 299 299 299 298 297 296 296 296 294 292 291 291 291 290 290 290 290 291 291 291 291 291 291 290 290 290 290 290 290 290 290 289 290 290 290 290 290 290 290 290 290 291 291 291 292 293 294 295 295 295 296 296 296 296 297 297 297 298 298 299 301 302 305 308 311 311 311 310 309
301 300 300 300 299 298 298 298 298 298 298 298 298 298 298 298 298 298 298 297 297 296 296 296 294 292 291 291 291 290 290 290 290 290 291 291 290 290 290 290 289 289 289 289 289 289 289 289 289 290 290 290 290 290 290 290 290 291 291 291 291 292 293 294 295 295 296 296 296 296 297 297 297 298 298 299 300 302 304 308 310 310 310 309 308
299 299 299 299 299 298 299 299 299 299 298 298 298 298 298 298 298 298 298 297 297 296 296 295 293 292 291 291 291 291 291 290 290 290 290 290 290 290 289 289 289 289 288 289 289 289 289 289 289 289 290 290 290 290 290 290 291 291 291 291 291 292 293 294 295 295 296 296 296 296 297 297 298 298 299 300 301 303 304 307 309 308 308 308 306
299 299 299 299 299 299 298 299 299 299 299 298 298 298 298 298 298 298 297 297 296 296 296 295 293 292 291 291 291 291 291 290 290 290 290 289 289 289 289 289 288 288 288 288 288 289 289 289 289 289 289 290 290 291 291 291 291 291 291 291 291 292 293 293 294 295 295 296 296 297 297 298 298 299 300 301 302 304 305 306 307 306 306 306 303
299 299 298 299 299 299 299 299 299 299 298 298 298 298 298 297 297 297 297 296 296 295 295 294 293 292 291 291 291 291 290 290 290 290 289 289 289 288 288 288 288 288 288 288 288 288 289 289 289 289 290 290 291 291 291 291 291 291 291 291 291 292 293 294 294 295 295 296 296 297 298 298 299 299 301 302 303 304 304 305 305 304 304 304 301
298 299 299 299 299 299 299 299 299 298 298 298 298 298 297 297 297 297 296 296 295 295 295 294 293 292 292 291 291 290 290 290 290 290 289 288 288 288 288 287 287 287 288 288 288 289 289 289 290 290 291 291 292 292 292 292 291 291 291 291 292 292 293 294 295 295 296 296 296 297 298 298 299 300 301 302 303 303 303 303 304 303 303 302 299
299 299 299 299 299 299 299 298 298 298 298 298 297 297 297 297 296 296 295 295 295 295 295 294 293 293 292 291 290 290 290 290 290 289 288 288 288 287 287 287 287 287 288 288 288 289 289 290 290 291 292 292 292 292 292 292 292 292 292 292 292 293 293 294 295 296 296 297 297 297 298 299 299 300 301 301 302 301 301 302 302 302 302 301 298
299 300 299 300 300 299 299 298 298 298 298 297 297 297 296 296 295 295 294 294 295 295 295 294 294 293 292 291 290 290 290 290 290 289 288 288 287 287 287 287 287 287 288 288 288 289 289 289 290 290 291 292 293 293 293 293 293 293 293 293 293 294 294 295 295 296 297 298 298 298 299 299 299 300 301 301 300 300 300 300 301 301 300 299 297
300 300 299 300 299 299 299 299 298 298 298 297 297 296 295 295 295 294 294 295 295 295 294 294 294 293 293 292 291 290 290 290 289 289 288 287 287 287 286 287 287 287 288 288 288 288 288 289 289 290 290 291 292 293 294 294 294 294 294 294 295 295 295 295 296 296 297 298 298 299 299 299 299 299 299 299 299 299 299 299 299 299 298 297 296
300 300 300 299 299 299 299 299 298 298 297 297 296 295 294 294 294 295 295 295 295 295 294 294 293 293 293 292 291 290 290 290 289 289 288 287 287 287 286 286 287 287 287 287 288 288 288 288 289 289 289 290 290 292 294 295 295 295 295 295 296 296 296 296 296 297 297 298 298 299 299 299 299 299 297 297 297 297 297 297 297 297 297 295 295
300 300 299 299 299 299 299 298 298 298 297 297 296 295 294 294 295 295 295 295 295 295 294 293 293 293 293 292 291 290 290 290 289 289 288 287 287 287 286 286 287 287 287 287 287 287 287 288 288 288 288 289 290 291 293 294 295 296 296 296 296 296 297 297 297 297 297 298 298 299 299 298 298 298 297 296 296 296 296 296 296 296 295 294 294
299 299 299 299 299 299 299 298 298 297 297 296 295 294 294 295 295 295 295 295 295 294 294 293 293 293 292 291 290 290 290 290 289 288 288 287 287 287 286 287 287 287 287 287 287 287 287 287 287 288 288 288 289 290 292 293 294 295 295 295 296 296 296 296 297 297 298 298 298 298 298 297 297 297 296 296 296 295 295 296 296 295 295 294 294
299 299 299 299 300 299 299 299 298 297 296 295 295 295 295 295 295 295 295 295 295 294 293 293 293 292 292 291 290 290 290 290 289 289 288 287 287 287 286 287 286 286 287 286 286 287 287 287 287 287 287 288 289 289 291 292 293 293 294 294 294 295 295 295 296 297 297 297 297 297 297 296 296 296 295 295 294 294 294 295 295 294 294 293 293
299 299 299 300 300 300 299 298 297 296 296 295 295 295 295 295 295 296 296 295 295 294 293 293 293 292 291 290 290 290 290 290 289 288 287 287 287 287 286 287 286 286 286 286 286 286 286 286 287 287 287 288 288 289 290 291 291 292 293 293 293 294 294 295 295 296 296 296 295 295 295 295 294 294 295 294 294 293 293 294 293 293 293 293 293
300 300 300 300 300 301 300 298 296 296 296 295 295 295 296 296 296 296 296 295 294 294 294 293 292 292 291 290 290 290 290 289 289 288 287 287 287 287 286 286 286 286 286 286 286 286 286 286 286 287 287 288 288 289 289 290 290 291 292 292 293 293 294 294 294 294 294 294 294 293 293 293 293 294 294 293 293 293 293 293 293 292 292 292 292
300 300 300 300 301 301 300 299 298 297 297 297 297 297 297 297 297 296 295 294 294 294 294 293 292 292 291 290 290 290 290 289 288 288 287 287 287 287 286 286 286 286 286 286 286 286 286 286 286 286 287 287 288 288 289 289 290 290 291 291 292 292 293 293 294 294 293 293 293 293 293 293 293 293 293 293 292 292 292 292 292 292 291 291 291
300 300 300 300 300 300 300 299 299 298 298 298 298 297 297 297 296 296 295 294 294 294 293 293 292 292 291 290 290 290 290 289 289 288 287 287 287 287 286 286 286 286 286 286 286 286 286 286 286 286 286 287 288 288 289 289 289 290 290 291 291 291 291 292 292 292 292 292 292 292 292 292 292 292 292 292 292 291 291 291 291 291 290 290 290
301 300 300 300 301 300 300 299 299 298 298 297 297 297 297 297 296 295 294 294 294 294 293 293 292 292 291 290 290 290 290 290 289 288 287 287 287 286 286 286 286 286 286 286 286 286 286 286 286 286 286 286 287 288 288 288 289 289 289 290 290 290 290 291 291 291 291 291 292 292 291 291 291 291 291 291 291 291 290 290 290 290 290 290 290
301 300 300 300 300 299 299 298 298 297 297 297 297 297 297 296 296 295 294 294 294 293 293 293 292 291 291 290 290 290 290 290 290 289 288 287 286 286 286 286 286 286 286 286 286 286 286 286 286 286 286 286 287 287 287 288 288 289 289 289 289 289 289 290 290 290 290 290 290 291 291 290 290 290 290 290 290 290 289 289 289 289 290 290 290
300 299 299 299 298 298 297 297 297 297 297 297 297 297 296 296 296 295 294 294 293 293 293 292 292 291 291 290 290 290 290 290 290 289 288 287 287 286 286 286 286 286 286 286 286 286 286 286 286 286 286 286 286 287 287 288 288 288 288 288 288 289 289 289 289 289 289 290 290 290 290 290 290 290 290 290 289 289 289 289 289 290 290 290 289
299 298 298 297 297 296 296 296 295 296 296 296 296 296 296 295 295 295 294 294 294 293 293 292 292 291 290 290 290 290 290 290 290 290 289 288 287 287 286 286 286 286 286 286 286 286 286 286 286 286 286 286 286 287 287 287 288 288 288 288 288 288 288 288 289 289 289 289 289 289 289 289 289 289 289 289 289 289 289 289 290 289 289 289 289
297 297 296 296 295 295 294 294 294 295 295 295 295 295 294 294 294 293 293 293 293 293 293 292 292 291 291 290 290 290 290 290 290 290 290 289 288 287 287 286 286 286 286 286 286 286 286 286 286 286 286 286 286 286 287 287 287 288 288 288 288 288 288 288 289 289 289 289 289 289 289 289 289 289 289 289 289 289 289 289 289 289 289 289 289
297 296 295 295 294 294 293 293 293 293 293 293 293 293 293 293 293 292 292 292 292 292 292 291 291 291 291 291 291 290 290 290 289 289 290 290 289 288 288 287 287 286 286 286 286 286 286 286 286 286 286 286 286 286 287 287 287 288 288 288 288 288 288 288 289 289 289 289 289 289 289 289 288 288 289 289 289 289 289 289 289 289 289 289 289
295 295 294 294 293 292 292 291 291 291 291 291 291 291 291 291 291 291 291 290 290 290 290 290 290 291 291 291 291 291 290 290 290 289 289 290 290 289 288 288 287 287 286 286 286 286 286 286 286 286 286 286 286 286 287 287 287 287 288 288 288 288 289 289 289 289 289 289 289 289 289 288 288 289 289 289 289 289 289 289 289 289 289 289 289
293 293 292 292 292 291 290 290 289 289 289 289 289 289 289 289 289 289 289 289 289 289 289 289 289 289 290 290 290 290 291 290 290 289 289 289 290 289 289 288 288 288 287 287 286 286 286 286 286 286 286 286 286 286 287 287 287 287 287 288 288 288 289 289 289 289 289 289 289 289 289 289 289 289 289 289 289 289 289 289 289 289 289 289 289
292 291 291 290 290 290 289 289 288 288 287 286 286 286 286 286 286 287 287 287 287 287 287 287 288 288 288 289 289 290 290 290 290 289 289 289 289 289 289 289 288 288 288 288 288 287 287 286 286 286 286 286 286 286 286 287 287 287 287 287 288 288 289 289 289 289 289 289 289 289 289 289 289 289 289 289 289 289 289 289 289 289 288 288 288
291 291 290 290 289 288 288 288 287 286 286 285 285 285 285 285 285 285 285 285 285 285 285 285 286 287 287 288 288 289 289 289 289 289 289 289 289 289 290 289 289 289 289 289 289 288 287 287 287 286 286 286 286 286 286 286 287 287 287 287 288 288 288 289 289 289 289 289 289 289 289 289 289 289 289 289 289 289 289 289 288 288 288 288 288
Wind_Speed
38 39 39 38 36 35 33 31 29 27 26 25 25 24 24 24 22 20 18 17 15 14 14 12 11 10 9 10 10 11 12 11 11 12 12 13 13 13 14 14 15 17 19 21 22 22 23 25 26 26 25 25 26 25 25 24 23 23 22 21 23 23 24 23 14 13 25 28 26 30 30 26 25 24 25 26 28 31 33 33 34 33 33 32 30
40 40 39 38 37 36 34 31 29 28 26 26 25 25 24 23 21 19 17 15 14 14 12 10 9 9 10 10 11 10 10 10 10 11 12 12 12 12 12 13 15 16 18 19 21 21 23 25 26 27 25 24 25 25 25 24 24 24 24 22 22 24 23 24 21 15 19 25 25 28 29 25 25 26 26 26 27 28 29 31 33 34 35 34 32
41 40 39 39 38 36 34 32 30 29 27 27 26 25 24 23 21 18 16 15 14 12 10 8 8 9 10 10 9 8 8 8 9 10 11 12 13 14 15 15 17 18 19 19 20 21 21 23 25 25 25 24 26 25 24 24 23 23 24 23 23 24 24 24 23 19 20 24 24 25 26 25 26 27 27 28 29 29 30 32 34 36 36 35 34
41 39 38 38 37 36 35 32 31 30 29 28 26 24 23 22 20 17 15 14 12 11 9 8 8 9 9 8 7 7 7 8 9 11 13 15 17 18 19 19 19 20 20 21 20 20 21 22 24 24 24 24 26 27 25 24 23 22 23 24 23 24 24 25 25 23 22 23 22 23 26 27 27 27 28 28 29 30 31 32 33 35 35 34 34
36 39 38 36 36 36 35 34 32 32 31 28 26 24 23 20 18 16 14 13 11 9 9 9 9 8 8 7 6 7 8 9 11 13 15 16 17 18 19 19 20 20 20 21 20 20 20 22 23 23 23 24 25 26 25 24 24 23 24 24 23 24 24 24 24 23 23 24 24 24 24 26 26 27 27 28 29 29 29 30 32 32 33 34 35
24 29 34 35 35 35 36 35 34 33 31 29 26 24 22 19 17 15 13 12 10 9 9 9 9 8 8 7 7 8 9 11 12 14 15 16 16 17 17 18 19 20 20 20 21 21 21 22 23 23 23 23 23 25 25 25 25 25 24 24 24 23 24 23 22 22 22 23 25 25 23 24 25 26 27 29 30 29 28 28 29 31 33 34 34
23 22 25 29 32 34 35 35 34 32 30 28 26 23 21 18 16 14 12 11 10 10 10 9 9 8 7 8 9 10 11 13 14 15 16 17 17 18 18 18 18 19 19 19 20 21 21 22 23 23 23 23 24 25 26 26 25 24 24 24 24 23 24 25 25 24 23 22 23 23 22 23 25 26 27 28 29 28 28 27 27 29 31 31 33
30 28 25 24 26 29 32 33 32 31 28 26 24 22 20 17 14 13 12 11 11 11 10 10 10 8 9 10 11 11 12 13 15 16 17 19 19 19 20 20 20 20 20 20 20 21 21 22 23 24 24 24 24 24 25 25 24 25 25 25 25 26 26 26 25 23 21 21 21 22 21 21 22 23 23 23 23 25 29 30 27 28 31 32 32
32 31 28 23 20 20 23 26 27 27 26 24 23 21 19 16 14 13 12 12 12 11 11 10 9 9 11 11 11 11 12 14 15 17 19 20 20 21 23 24 25 25 24 23 23 23 23 23 24 24 25 26 26 27 28 28 28 29 29 28 27 27 27 26 25 23 20 19 20 21 21 18 19 20 19 21 25 28 30 29 26 26 29 30 30
31 30 27 25 20 17 18 22 24 25 25 23 22 20 17 14 13 13 13 12 12 11 11 10 10 11 11 10 10 11 13 15 17 19 20 21 22 23 24 26 26 27 27 27 27 26 26 25 25 25 26 27 28 29 31 31 31 32 33 32 30 30 28 27 26 24 21 19 19 20 19 17 20 20 20 24 29 29 26 26 26 24 23 22 24
31 31 29 29 27 24 22 22 23 23 24 23 21 19 16 14 13 13 13 12 11 11 10 10 10 10 10 9 10 12 14 16 18 19 21 21 23 24 26 27 28 28 29 29 28 28 28 27 27 26 26 26 27 28 29 29 30 30 31 32 32 32 32 29 27 25 22 21 21 22 20 20 23 22 18 22 27 27 26 28 28 25 22 19 16
30 30 31 32 32 32 30 26 24 24 24 23 20 18 16 14 13 13 12 11 10 10 10 9 8 8 7 8 11 13 15 17 19 20 21 22 23 24 25 27 27 28 29 29 28 28 28 28 29 28 28 28 27 28 29 29 30 30 31 32 33 34 34 33 32 30 26 24 23 24 23 23 25 25 21 21 23 26 27 26 26 27 27 25 21
28 28 29 30 31 32 31 28 26 27 26 22 19 17 15 13 13 12 11 10 9 9 8 7 5 5 7 10 13 14 16 18 19 20 21 22 23 24 24 25 27 28 29 29 29 29 29 30 30 29 29 28 28 28 29 30 31 31 32 33 33 34 35 35 36 36 34 31 28 29 28 26 26 27 25 23 23 25 26 25 27 30 30 28 26
28 28 28 29 31 31 30 30 30 28 25 22 19 16 13 12 11 10 9 8 8 7 5 4 4 7 10 12 13 15 17 20 21 22 23 23 24 24 25 26 27 28 29 29 30 30 30 30 30 30 29 28 28 28 29 30 32 33 33 33 34 34 34 34 34 35 36 35 32 32 31 29 30 31 29 27 27 26 26 27 30 32 30 24 20
27 29 30 30 31 32 32 33 32 28 24 21 17 13 12 12 11 10 9 8 7 5 4 5 7 9 10 12 15 19 22 24 25 25 26 25 25 26 27 28 29 30 30 29 29 30 30 29 30 30 30 29 29 28 29 31 32 34 35 35 36 37 37 36 33 32 32 33 32 31 31 29 29 30 29 29 32 31 30 31 32 30 27 21 17
22 25 29 31 31 33 34 33 31 27 23 19 16 14 13 12 11 10 9 7 6 5 5 6 8 9 11 14 18 22 25 27 28 28 28 28 27 28 29 30 30 30 30 30 29 29 29 29 29 30 31 31 29 29 29 31 33 34 35 36 37 39 40 39 36 35 35 35 35 35 34 33 31 30 29 29 31 34 32 30 28 26 23 19 17
26 27 29 30 31 32 33 31 28 25 21 17 16 15 14 12 11 10 8 6 5 5 6 7 9 11 13 15 19 23 25 27 28 28 29 29 28 28 29 30 30 30 31 30 30 29 29 29 30 30 31 31 30 29 29 29 32 33 34 36 36 37 39 37 35 35 36 37 39 40 39 38 36 34 33 31 30 33 32 28 27 27 24 17 13
33 34 34 35 35 34 32 30 27 23 20 17 16 14 13 12 11 8 6 5 5 7 9 10 11 11 12 14 19 23 26 28 28 29 29 28 28 29 29 30 30 30 31 31 30 30 30 30 29 30 32 32 31 31 30 30 32 33 33 34 34 36 36 33 31 33 32 33 36 38 38 38 35 33 33 32 30 32 35 33 31 31 27 20 17
32 35 35 36 37 35 32 29 26 23 20 17 15 14 13 11 8 6 5 6 9 11 12 12 10 9 10 15 20 23 27 29 28 29 29 29 29 29 29 30 29 30 30 31 31 30 30 30 30 30 32 32 32 31 31 31 32 34 34 34 33 34 33 31 30 31 29 29 32 34 33 33 32 31 32 30 28 28 37 41 37 35 31 26 24
33 36 36 35 35 34 31 28 24 21 20 18 15 13 10 7 6 7 9 11 13 14 13 11 8 7 10 16 21 24 27 29 28 28 29 29 29 29 29 29 29 30 31 31 31 31 31 32 32 32 33 33 33 33 33 33 34 35 36 34 33 32 30 29 29 29 28 28 30 31 31 31 31 31 31 30 27 25 32 42 42 40 36 32 29
38 40 40 37 34 31 27 26 24 21 19 16 13 10 8 7 9 11 13 15 16 14 12 9 7 8 12 17 21 23 26 27 27 28 28 29 29 29 29 29 29 31 32 32 32 33 33 33 35 35 34 34 34 35 35 34 35 36 37 37 36 35 32 31 31 29 28 29 28 30 32 32 32 33 33 31 28 25 28 39 44 44 42 37 32
39 39 37 36 34 31 27 25 23 20 16 14 12 11 10 11 12 13 15 16 15 12 10 8 8 10 14 18 20 22 25 25 26 27 27 28 28 28 29 30 30 31 33 33 32 33 32 33 34 34 34 35 36 36 37 37 37 38 39 39 39 39 38 37 35 32 31 31 30 31 32 32 32 33 33 32 29 26 26 34 42 45 46 45 40
38 37 35 35 34 31 27 24 21 19 17 14 13 12 12 12 13 15 16 16 13 11 9 9 10 12 15 18 19 22 24 25 26 27 28 28 28 28 29 30 31 31 33 34 34 36 37 37 38 38 38 39 39 39 39 40 39 40 40 39 39 40 40 40 38 34 32 31 30 30 31 31 31 31 32 32 30 27 26 30 38 45 47 48 46
38 37 36 35 32 28 25 23 21 20 17 14 12 11 11 13 15 16 16 14 12 11 11 11 12 13 16 18 19 22 24 26 27 28 29 28 28 28 29 30 31 32 34 36 36 37 39 40 41 41 41 41 41 41 41 41 41 41 40 39 38 38 39 39 36 33 30 29 28 28 29 30 31 31 31 31 29 27 27 29 34 42 45 45 43
39 36 33 31 28 26 24 23 20 18 16 13 11 10 11 14 15 15 16 14 13 13 13 14 14 15 17 18 20 23 25 26 28 29 29 28 28 28 29 30 32 33 35 37 37 38 40 42 43 43 43 43 43 43 42 42 42 42 41 40 39 38 37 36 33 30 28 26 26 27 28 30 31 32 32 30 29 29 28 28 30 35 37 36 35
37 33 30 29 27 25 23 22 19 17 16 13 11 11 12 13 14 14 16 15 14 15 16 16 16 16 17 17 19 23 26 27 28 30 29 28 27 28 29 31 33 34 35 37 38 39 41 41 41 41 41 40 40 40 39 39 38 38 39 39 39 38 35 33 30 28 26 26 25 26 28 29 31 32 31 29 29 29 27 26 28 30 31 32 28
34 30 29 29 27 24 23 22 19 16 14 12 10 10 10 9 11 14 16 16 16 17 18 19 18 16 15 16 19 24 26 27 28 30 30 29 28 29 30 32 33 34 35 36 37 37 38 38 39 39 39 39 38 38 38 38 36 34 34 35 36 36 35 33 31 28 27 27 27 26 27 28 29 30 29 27 28 28 25 26 29 29 30 31 26
32 30 30 30 26 22 21 20 16 13 12 11 8 7 6 7 9 12 13 13 15 16 18 20 19 14 13 15 19 23 26 27 29 31 31 30 29 30 31 32 33 33 34 35 36 36 37 38 38 37 36 35 34 34 34 34 34 33 33 32 32 33 35 34 33 32 30 28 27 26 26 27 28 28 28 27 26 25 23 26 29 29 30 30 25
32 32 30 26 23 19 18 16 13 12 12 10 8 6 5 6 7 8 9 10 13 15 17 19 16 11 11 14 18 22 25 28 31 33 31 29 29 30 31 32 33 34 34 34 35 35 34 33 32 31 30 29 28 28 27 27 28 29 30 31 30 30 32 33 32 32 31 29 28 26 26 26 27 27 26 25 24 23 24 27 29 28 29 29 25
30 29 26 22 20 18 16 14 14 14 14 11 8 5 4 4 4 5 7 10 13 15 17 18 15 11 11 14 18 21 24 29 34 33 29 27 28 29 30 32 32 32 31 30 30 29 28 26 25 25 25 25 24 24 23 23 24 25 27 29 29 29 30 31 31 31 31 30 29 29 28 27 26 26 26 25 23 23 25 27 29 30 29 27 24
28 27 25 22 18 17 17 17 17 16 13 9 6 4 4 3 3 4 7 10 13 15 17 18 15 11 11 15 19 23 27 32 34 31 28 27 28 30 31 31 30 28 26 26 25 24 22 21 21 21 22 23 23 23 22 20 21 23 23 24 27 29 30 31 31 31 30 30 30 30 29 28 27 26 27 26 25 24 25 26 28 29 29 28 26
28 25 23 20 17 18 20 20 17 14 11 9 8 7 6 4 2 4 6 10 13 15 17 17 16 14 13 15 20 25 31 34 33 29 28 28 29 30 31 30 27 25 23 23 21 20 19 19 19 20 22 22 22 22 22 20 20 22 22 21 23 27 30 32 33 32 30 30 29 28 28 28 28 28 28 27 26 25 26 26 26 26 25 25 26
25 23 23 22 21 21 21 18 15 13 11 10 10 9 7 4 2 4 7 9 12 13 13 14 15 16 16 16 21 26 32 34 31 29 28 28 29 30 30 28 25 22 20 20 19 19 20 20 20 21 22 22 22 21 20 21 21 22 22 22 22 25 28 32 32 31 30 29 28 28 28 29 29 28 27 27 28 28 27 27 26 26 25 24 25
26 25 25 24 22 21 19 16 14 14 13 11 10 8 5 2 2 5 8 10 13 13 11 10 9 11 13 16 22 27 31 33 31 28 27 28 28 29 29 27 25 23 20 19 19 20 21 21 21 22 23 23 24 23 19 18 19 20 21 23 23 24 26 28 28 29 30 30 29 29 29 30 30 29 27 26 26 26 25 25 25 25 25 25 25
28 26 24 23 21 19 17 15 14 15 14 11 9 6 3 0 3 6 9 11 13 13 11 10 9 9 12 17 22 27 31 32 30 28 27 27 28 29 28 26 26 25 24 22 21 21 22 22 22 23 23 23 23 22 19 16 15 15 17 19 21 23 24 24 26 28 31 30 29 29 30 30 30 30 28 27 26 25 24 25 25 25 26 26 27
26 25 24 22 20 18 16 15 15 15 13 10 7 5 2 1 4 7 10 11 12 11 10 10 11 12 15 18 23 28 31 31 29 27 26 26 27 27 26 24 23 23 23 23 23 23 22 22 23 23 23 23 23 20 17 14 12 11 11 13 15 17 18 20 22 25 28 28 28 29 29 29 29 29 27 26 25 25 25 25 25 25 26 28 29
25 24 22 19 17 16 15 14 14 14 11 8 6 4 1 3 5 8 10 12 11 10 9 10 12 15 17 20 23 28 32 32 30 27 26 26 27 26 24 23 23 22 22 23 24 24 23 23 23 23 23 22 21 19 15 11 9 8 7 8 9 10 11 13 15 19 22 24 25 27 27 27 27 27 26 24 23 23 23 23 23 24 26 29 29
23 20 18 16 14 13 14 15 15 14 10 7 6 4 2 4 6 9 11 11 10 9 9 11 13 15 17 20 23 28 32 33 32 31 29 28 27 26 25 24 24 23 23 24 25 24 23 23 23 23 22 22 20 17 14 10 7 5 4 4 5 7 9 10 13 16 18 20 21 23 24 24 25 26 27 26 25 25 25 26 27 27 27 27 28
19 17 15 14 12 11 12 14 14 12 9 7 7 4 4 7 10 13 12 10 9 9 10 11 12 13 15 18 22 27 30 31 30 29 28 27 27 26 26 25 24 24 24 25 25 25 23 23 23 22 21 20 19 16 13 10 6 2 1 3 5 7 9 12 14 16 18 19 20 21 22 24 25 26 27 27 27 27 27 28 30 30 28 27 27
17 16 14 13 12 11 10 10 11 10 7 4 2 3 6 8 10 12 9 9 9 9 10 11 12 13 14 16 20 24 26 27 28 27 26 26 26 25 25 25 25 25 25 25 25 25 24 23 23 22 21 20 18 16 13 10 7 4 3 5 7 9 11 13 15 18 20 21 22 22 23 24 26 27 27 27 28 30 30 29 29 31 30 30 30
16 15 13 11 10 9 8 8 7 4 1 3 5 6 6 6 7 7 7 9 9 10 10 10 11 12 13 15 18 21 24 25 27 26 25 24 24 24 24 25 24 25 25 26 26 26 24 23 23 22 22 20 19 16 14 12 10 7 7 8 10 12 14 15 17 19 22 24 25 25 24 25 26 28 28 28 29 30 31 31 31 32 32 32 33
15 14 12 11 9 7 6 7 7 6 8 10 11 11 9 7 7 7 8 10 10 11 11 11 11 11 13 15 17 19 22 25 26 26 24 23 23 23 23 23 24 24 25 26 26 25 24 23 23 23 22 22 21 18 17 15 13 11 10 11 12 14 15 17 18 21 23 25 26 28 27 26 27 28 30 31 31 31 32 33 33 34 33 33 33
15 13 11 10 8 8 9 11 13 14 16 17 17 14 11 9 9 9 8 8 8 10 11 11 11 11 13 15 16 18 21 24 26 26 24 22 22 22 22 23 23 24 25 25 25 24 24 23 23 23 23 23 22 20 18 16 15 14 14 14 15 15 16 18 19 21 24 25 27 28 29 30 30 30 31 32 32 32 32 33 34 34 35 34 34
16 15 15 14 14 15 17 18 18 19 20 19 18 16 14 13 13 12 10 9 8 9 9 9 10 10 13 15 17 18 19 21 24 25 24 22 22 22 22 22 22 23 23 24 24 24 24 24 24 24 24 23 22 21 20 18 17 16 16 16 17 17 17 18 19 21 24 27 28 29 30 31 31 32 32 33 34 34 33 32 33 33 34 34 34
21 21 21 21 21 21 21 20 20 20 20 20 19 17 16 16 17 17 16 13 12 12 11 9 9 9 11 14 17 18 18 19 21 24 24 23 22 21 21 21 21 21 22 23 23 24 24 24 25 25 25 25 23 22 21 20 19 19 18 19 19 19 19 19 20 22 25 28 29 30 31 31 31 32 32 33 34 34 33 33 33 33 33 33 32
25 24 24 23 23 22 21 20 20 20 20 20 19 17 16 16 17 18 18 17 16 16 15 13 12 11 12 13 15 17 17 17 18 21 23 23 22 20 20 20 20 20 20 21 21 22 23 24 25 25 26 25 25 24 23 22 21 21 21 21 21 21 21 22 24 25 27 28 30 32 32 32 32 32 33 33 33 33 33 34 34 33 32 32 31
24 24 23 22 22 21 20 20 20 20 21 20 19 17 17 16 16 17 17 17 17 17 16 16 16 16 15 15 16 17 17 16 15 16 19 22 21 19 19 19 19 19 19 20 20 21 22 23 24 25 26 26 26 26 25 24 23 23 23 23 23 23 24 25 27 28 29 30 32 34 35 35 34 34 34 34 34 34 35 35 34 33 33 32 32
23 23 22 21 20 20 20 20 20 21 21 20 19 18 16 16 16 16 17 17 17 17 16 17 17 17 17 17 17 18 18 18 15 13 15 18 20 19 17 17 18 18 18 19 20 20 21 22 23 24 25 26 26 27 26 26 25 25 24 24 24 25 26 28 29 30 32 33 35 36 37 37 37 36 35 35 35 36 35 35 33 33 32 32 32
24 23 23 22 22 22 21 20 21 21 20 19 19 18 17 16 16 16 16 16 16 16 15 16 16 17 18 18 18 18 18 19 19 16 13 13 16 17 16 14 15 17 18 18 18 19 20 21 22 23 24 25 26 26 26 26 26 26 26 25 25 25 27 29 30 31 33 34 35 36 37 38 38 37 36 36 36 35 34 34 33 32 32 31 30
24 24 24 24 23 22 21 21 21 20 19 19 19 18 17 17 18 17 17 16 16 16 15 15 15 16 17 18 19 19 19 20 20 19 16 12 12 14 15 14 13 15 17 17 17 17 18 19 21 22 23 24 25 26 26 26 26 26 26 25 25 26 27 29 30 31 32 34 35 35 36 37 37 36 35 35 35 34 33 33 32 32 31 29 28
23 23 23 22 21 20 20 20 20 19 19 19 19 17 17 17 17 18 17 17 16 16 16 15 15 15 16 16 18 19 19 20 20 20 19 15 11 10 12 13 12 12 14 17 18 18 18 18 19 21 22 23 24 24 25 25 25 25 25 25 25 26 27 28 29 30 31 33 34 34 35 36 36 36 34 34 34 34 33 32 31 30 29 28 27
Wind_Direction
201 203 204 205 205 205 206 209 211 212 212 211 210 206 204 203 203 203 203 202 205 208 212 218 230 246 254 258 265 273 277 281 289 293 294 295 295 293 292 293 293 295 297 298 300 302 302 302 302 301 302 303 302 301 301 300 302 303 304 306 302 293 271 252 241 259 266 264 262 265 267 267 267 265 262 260 255 250 247 247 247 248 248 246 243
202 204 206 206 206 205 205 207 209 210 210 210 210 206 204 204 205 206 205 205 208 213 220 232 247 257 259 264 271 273 278 287 293 292 291 293 294 292 292 295 297 298 297 298 300 302 302 300 300 301 303 303 302 302 302 300 300 300 301 303 302 301 293 273 256 252 264 264 260 262 264 261 260 262 259 255 254 252 250 249 248 247 247 244 241
205 205 205 207 207 205 204 205 207 208 208 207 206 204 203 203 205 207 206 206 214 221 231 246 257 260 262 265 268 272 282 291 290 290 294 300 302 301 302 303 302 301 299 299 300 300 298 296 295 299 302 302 301 301 302 302 301 299 298 299 300 300 302 295 278 265 265 268 261 256 258 256 253 256 257 256 255 253 251 250 248 246 243 241 239
204 204 205 206 206 203 202 204 205 205 205 205 203 202 202 203 205 207 206 210 218 226 239 252 255 256 258 260 266 279 290 298 302 305 308 310 310 309 309 309 307 306 303 302 301 298 295 292 293 295 297 298 299 299 300 301 302 301 297 297 298 297 300 304 298 284 273 273 269 258 253 251 249 252 254 253 251 249 248 245 243 242 241 241 241
205 203 204 204 204 202 200 202 204 204 204 203 203 202 202 203 205 206 208 212 220 229 239 245 245 245 248 254 268 286 300 307 310 312 312 312 312 311 311 311 309 307 305 303 301 296 293 291 292 294 294 293 295 296 298 298 299 299 298 295 295 296 297 301 305 299 284 276 276 271 259 249 246 248 248 246 245 244 241 239 238 239 240 241 241
219 208 203 202 202 201 199 200 202 203 203 203 202 202 203 204 206 207 211 217 222 228 231 232 235 236 241 256 278 293 302 306 306 307 308 308 311 312 311 311 309 304 301 299 298 294 291 290 291 292 291 290 291 294 295 296 296 295 295 295 294 295 295 296 302 308 300 286 279 276 268 255 244 239 240 243 241 236 232 232 233 234 234 235 234
220 217 213 207 203 201 200 200 201 202 203 202 201 203 204 205 208 212 216 221 223 226 228 230 232 237 253 279 296 301 303 304 305 307 307 307 310 311 312 311 309 305 299 296 295 293 290 288 288 288 287 286 287 289 290 292 293 292 292 294 295 293 292 293 296 300 303 300 290 280 273 265 251 239 238 239 237 232 229 227 226 226 227 229 229
205 207 212 213 209 205 201 199 200 200 201 201 200 201 202 204 208 212 218 223 226 229 233 235 239 255 284 299 302 300 298 300 303 306 307 308 307 307 307 307 306 303 300 296 294 292 290 289 287 286 285 284 285 285 286 287 289 290 290 291 293 291 290 292 293 292 294 296 296 291 283 272 260 248 238 229 223 226 229 227 225 223 222 224 227
195 195 198 202 210 214 206 198 198 198 198 198 197 198 199 201 204 210 219 225 227 231 235 240 258 286 302 301 294 289 291 296 303 307 308 307 306 306 305 304 303 302 299 296 294 291 289 287 285 284 284 283 283 283 282 283 284 286 287 287 288 288 288 288 287 288 288 286 288 293 290 283 271 256 234 219 220 228 231 227 226 227 223 220 223
188 188 188 187 193 208 209 201 197 198 197 196 195 196 197 198 203 211 220 225 226 231 240 256 284 298 296 286 282 287 296 302 307 308 308 307 306 305 303 301 301 299 297 295 294 292 291 288 286 284 283 283 283 282 281 281 281 281 281 281 281 281 283 284 282 280 281 279 278 282 285 287 281 262 232 224 230 231 228 223 223 223 215 213 221
184 184 183 181 186 198 205 202 198 198 197 196 194 194 195 198 206 215 220 224 230 238 256 278 291 288 280 280 291 302 308 310 312 312 311 310 308 304 301 299 297 296 294 293 292 292 291 290 289 287 285 284 283 283 283 282 281 279 278 277 275 274 275 277 278 277 274 273 271 271 270 273 281 279 258 242 236 230 227 224 219 211 202 205 217
183 183 184 184 186 190 194 194 195 200 201 196 193 192 193 200 209 219 224 227 236 253 271 281 278 272 279 298 311 315 315 314 315 315 314 312 309 305 300 297 295 294 293 292 291 291 291 290 289 287 285 284 282 282 282 282 281 280 278 276 274 272 270 270 272 273 272 272 270 267 264 263 269 276 274 263 248 236 232 228 218 210 210 213 214
184 184 183 182 179 179 181 182 189 200 201 194 189 187 190 204 214 221 223 227 244 262 266 263 262 281 307 318 318 316 316 316 316 316 314 312 310 305 299 296 294 292 292 291 290 290 289 289 289 287 285 284 283 282 282 281 281 280 279 277 274 272 269 267 267 268 268 269 267 264 263 261 261 264 266 270 264 244 229 225 221 218 218 220 222
179 179 178 177 174 174 177 179 185 194 192 184 182 184 195 212 215 213 216 226 241 245 237 247 284 309 316 319 318 319 320 320 318 316 315 313 310 304 298 295 293 291 291 290 288 288 288 287 286 285 285 284 283 283 283 282 281 280 278 276 274 272 270 267 265 265 265 266 265 265 264 261 261 262 262 265 264 250 232 226 225 221 221 225 231
173 174 173 175 176 176 177 178 180 182 179 177 182 190 201 206 200 200 211 220 223 221 234 276 298 311 319 325 328 329 327 324 321 319 317 315 312 306 300 297 295 292 290 289 287 287 286 285 284 284 284 284 284 283 283 282 281 280 277 274 273 271 269 266 263 262 262 263 265 268 270 269 267 268 267 262 258 256 250 240 231 224 221 225 232
167 171 171 172 175 175 173 174 174 172 172 178 185 189 190 190 191 198 204 205 210 231 266 288 303 319 330 336 336 332 329 326 323 320 317 314 311 307 303 299 296 293 290 289 288 286 284 282 283 283 283 283 283 283 283 282 279 277 274 273 272 271 268 266 264 262 261 262 264 267 270 271 271 273 275 269 260 256 251 239 228 220 215 218 225
172 174 172 170 171 172 171 170 168 167 170 177 181 181 181 181 187 192 193 198 223 257 279 294 312 324 332 336 334 331 330 329 325 320 316 312 309 307 305 300 296 293 290 290 287 284 283 282 282 282 282 281 281 281 281 279 275 273 272 272 271 270 268 267 267 265 262 261 263 265 268 269 270 272 274 273 266 255 239 222 215 212 207 207 215
176 176 174 172 171 170 169 166 165 165 169 174 174 172 174 178 182 188 202 229 257 277 283 288 302 318 329 334 334 331 330 329 325 319 314 311 308 307 305 301 297 294 292 291 288 286 284 282 281 279 279 279 279 279 278 276 272 269 269 270 269 267 266 267 268 267 263 262 263 265 268 269 269 270 271 270 268 254 234 222 217 211 206 209 212
173 171 168 166 165 165 164 163 164 164 163 166 168 167 168 174 184 203 240 265 272 272 270 275 294 317 330 334 337 336 332 328 325 319 314 311 308 307 305 302 297 295 294 292 290 287 285 283 281 279 278 278 277 277 276 273 270 267 265 266 265 264 266 267 266 264 264 263 263 264 268 268 265 266 268 269 270 255 236 230 225 215 210 214 211
171 165 160 158 159 161 163 163 162 160 157 156 159 163 167 180 210 239 256 261 260 259 259 270 295 319 331 336 340 340 335 329 325 319 314 310 307 306 304 300 298 297 295 293 291 288 286 284 282 280 279 278 276 276 275 272 270 267 263 260 259 262 266 267 264 263 262 261 261 263 266 267 265 266 269 270 275 266 242 232 227 221 217 216 210
165 160 158 158 157 159 163 160 155 152 151 151 154 164 183 210 229 241 248 249 248 249 256 274 295 311 324 333 337 339 336 330 325 321 315 310 307 304 301 298 297 296 295 292 290 288 286 285 284 283 281 279 277 276 274 271 269 266 262 259 258 261 264 263 262 263 262 261 263 264 265 267 267 268 269 269 273 275 253 234 228 226 224 221 214
157 156 155 154 155 157 157 151 144 141 144 152 164 182 200 216 230 239 242 242 243 246 259 279 289 298 313 324 329 332 334 331 326 323 318 312 308 304 299 297 297 296 293 291 289 287 286 284 284 283 281 280 278 276 274 271 268 265 262 261 261 261 260 260 260 260 259 259 261 262 262 264 266 266 267 266 267 273 264 242 230 227 228 227 224
151 150 150 150 152 152 147 141 139 143 150 161 176 191 204 218 233 241 239 236 240 247 263 277 279 288 302 313 323 329 331 329 328 326 321 315 309 305 300 298 297 294 290 288 287 287 286 284 284 284 282 280 278 275 273 271 267 265 263 263 263 262 259 258 256 255 255 255 256 256 257 259 262 264 265 265 265 268 269 255 237 228 228 229 228
143 144 146 147 147 144 141 141 146 152 158 168 180 195 213 226 234 237 235 233 240 252 264 270 270 280 293 302 317 329 329 328 329 329 324 317 311 307 303 299 297 293 290 288 286 286 286 286 286 285 283 280 278 275 272 270 266 264 262 261 262 260 257 253 251 250 250 250 250 252 254 256 259 262 265 266 267 269 273 267 247 232 227 227 226
136 138 142 143 141 139 140 143 147 154 162 172 186 202 220 231 234 233 231 233 241 252 262 264 264 274 286 296 312 326 329 327 328 329 326 318 311 308 304 299 298 296 293 291 288 287 287 287 287 285 282 280 277 275 272 269 265 263 260 258 257 256 252 248 245 244 245 245 247 249 252 255 258 260 266 269 268 269 273 266 245 228 223 222 222
133 137 142 144 143 140 143 149 155 162 167 176 194 213 226 234 237 233 230 233 242 252 259 260 260 270 284 297 313 325 328 327 327 328 325 318 312 309 306 303 302 301 297 294 292 291 290 289 287 285 282 279 276 273 270 268 266 263 260 255 251 249 247 243 240 239 240 243 246 247 249 255 259 261 266 268 263 264 267 253 231 218 214 212 208
136 144 150 150 149 149 153 157 161 166 173 185 203 219 231 238 236 233 231 235 243 252 256 258 259 269 286 303 318 325 324 323 326 328 326 320 315 313 310 308 307 305 302 299 296 294 293 291 289 286 283 280 277 273 269 266 263 260 256 251 245 242 241 240 238 238 240 242 244 245 247 253 257 259 261 259 255 257 254 236 217 205 200 198 189
147 154 156 153 152 156 159 157 155 160 173 183 189 198 210 216 223 232 236 241 250 256 260 262 263 273 295 310 320 321 318 320 327 329 326 322 319 318 315 312 310 308 304 302 300 299 297 295 292 289 284 281 276 272 267 262 258 254 249 244 240 237 236 237 237 237 239 241 242 243 244 247 250 252 251 248 247 248 239 221 207 195 187 182 171
154 156 157 154 150 149 151 154 154 152 154 152 143 152 185 203 219 236 246 255 265 272 274 273 274 285 306 316 318 314 312 320 329 330 328 326 325 322 318 315 313 310 308 307 306 304 300 296 292 287 283 278 274 270 265 258 252 247 242 238 236 233 232 233 233 233 235 236 237 238 239 240 242 242 238 235 236 233 222 208 197 186 179 174 165
149 148 150 149 146 144 143 145 143 137 136 134 130 142 179 196 212 240 263 275 280 283 285 284 284 292 307 319 322 317 316 325 332 332 330 331 330 327 323 321 318 316 317 318 314 307 301 296 292 289 286 281 276 270 264 254 244 239 236 233 230 228 228 228 229 229 230 231 232 234 234 234 234 230 223 220 219 215 207 199 190 180 173 167 158
141 141 141 141 140 136 133 130 126 122 121 117 113 131 156 169 199 254 286 294 295 294 292 288 285 287 300 315 324 329 332 335 335 334 335 336 334 332 329 327 325 324 326 325 318 309 305 303 301 301 299 291 281 272 264 254 242 236 234 230 227 225 225 226 227 227 226 227 228 228 227 226 224 219 212 208 205 199 193 190 184 177 172 166 157
138 134 132 130 126 124 123 122 118 115 114 108 105 117 132 149 209 281 299 304 305 304 297 288 280 279 291 312 327 336 340 340 338 338 340 341 339 337 334 333 332 332 333 331 322 315 316 315 312 312 311 304 294 281 267 255 245 237 232 228 226 224 223 224 225 223 221 220 219 218 219 220 218 212 207 201 194 186 183 182 179 173 167 162 156
130 127 123 120 119 118 118 117 116 117 117 113 111 116 128 156 234 294 314 320 322 318 308 296 285 278 283 308 330 339 342 342 341 342 344 345 343 341 340 339 339 339 338 336 331 325 325 324 321 319 316 312 311 302 280 258 247 239 233 230 229 227 227 227 226 222 219 218 216 215 216 216 211 205 200 194 186 181 179 179 175 168 159 153 150
123 123 122 120 119 118 116 118 125 128 124 117 116 120 127 156 258 289 307 324 333 334 333 334 320 294 291 313 333 342 346 346 345 345 347 347 347 346 345 345 346 347 345 341 336 333 332 330 327 326 322 320 322 321 305 276 255 243 236 234 233 231 231 228 223 220 220 219 217 216 214 210 203 197 190 184 180 179 176 172 167 161 155 150 148
121 121 121 121 119 115 114 118 127 132 130 127 127 129 128 123 290 295 306 319 326 330 341 357 357 335 323 330 341 348 352 351 349 348 349 350 350 351 351 350 349 348 346 344 342 340 337 334 331 330 328 326 327 327 318 299 277 256 244 239 237 237 237 233 227 223 221 217 214 211 206 201 196 190 183 177 174 171 168 166 164 160 154 148 144
124 122 121 118 117 117 119 123 129 133 133 134 136 135 123 313 303 313 327 333 331 334 347 1 360 348 341 343 350 355 357 356 353 351 351 353 355 357 355 350 346 343 342 343 343 342 340 338 336 334 333 332 333 332 324 311 296 277 259 248 240 236 237 234 227 219 213 207 202 199 194 190 187 184 178 174 171 168 165 164 161 157 152 147 143
125 123 120 118 119 124 128 132 136 136 133 132 140 147 191 294 302 321 337 345 347 348 354 359 355 349 348 352 357 0 1 360 358 356 356 358 0 1 357 351 346 343 342 344 345 345 343 341 340 339 339 339 340 339 333 323 310 292 273 254 233 219 213 210 203 196 190 187 185 184 182 180 179 176 170 163 158 156 154 151 147 144 144 142 139
122 120 119 121 125 128 131 136 139 138 137 144 159 177 253 289 308 329 345 360 6 3 0 0 357 352 351 356 1 3 3 3 1 359 359 0 1 1 358 353 350 347 346 347 349 348 345 345 345 346 347 349 349 348 344 338 326 302 270 236 204 184 175 169 166 166 166 166 167 169 168 166 165 164 160 154 150 148 147 144 140 137 136 136 135
118 120 123 129 131 127 130 138 144 147 155 173 186 211 279 304 317 331 349 19 33 18 6 4 2 357 355 359 3 5 4 3 1 357 357 358 359 360 359 355 353 352 351 352 353 352 350 349 352 355 357 359 360 359 357 354 350 341 208 164 152 147 146 145 145 147 148 148 148 151 152 152 152 153 152 150 147 144 142 140 139 138 135 133 131
126 131 135 137 131 119 118 136 156 167 175 189 228 299 324 331 333 340 5 47 52 28 13 9 7 2 358 1 6 7 5 2 0 358 356 356 357 359 0 358 355 355 356 356 357 357 356 356 360 3 6 8 11 12 13 15 22 47 99 124 128 128 131 135 138 139 139 139 139 140 143 145 146 146 146 145 143 141 139 137 136 135 133 130 129
134 141 144 140 131 120 115 124 142 156 102 32 35 35 31 25 16 21 55 73 60 36 25 18 12 8 3 2 8 11 8 5 3 1 359 359 359 360 2 2 360 359 0 1 2 3 3 4 8 12 15 17 20 23 26 31 38 55 82 103 112 117 121 127 133 136 136 136 136 137 138 140 141 140 139 138 138 136 135 133 131 130 128 128 128
126 136 141 138 134 126 105 92 87 81 78 81 83 80 75 65 52 59 82 83 61 44 37 28 18 14 9 5 8 11 11 10 8 5 3 3 4 4 5 7 6 7 7 8 9 10 10 12 16 20 23 25 28 31 35 39 46 57 73 90 101 108 114 120 126 130 132 133 134 135 135 136 136 135 134 134 133 132 130 129 129 128 127 126 127
110 112 116 115 111 98 87 87 90 91 91 91 89 86 84 77 62 64 87 89 62 42 38 31 24 21 17 12 11 11 11 11 12 9 7 7 8 9 10 11 13 15 16 17 18 19 19 20 23 27 31 34 36 39 43 47 55 64 71 81 91 99 106 113 119 124 127 128 130 131 132 132 132 131 131 131 130 129 129 128 128 128 128 127 127
98 93 93 93 91 88 90 94 95 93 91 91 90 87 83 74 63 63 76 81 58 39 34 27 21 22 22 18 15 13 11 12 13 12 10 10 12 14 15 16 18 21 23 24 27 27 27 27 30 33 37 40 44 48 52 56 63 70 73 78 84 91 98 106 114 121 124 125 125 126 127 128 129 129 129 129 129 128 128 128 128 127 127 126 126
97 95 94 92 89 87 88 89 90 90 90 90 88 83 77 69 64 63 66 66 56 47 42 33 23 22 21 16 13 10 7 9 13 15 14 14 15 19 20 21 24 27 28 30 33 34 33 33 35 38 40 43 47 53 58 62 68 74 78 81 85 88 95 105 114 119 121 122 123 124 124 125 125 126 126 128 128 128 127 127 127 126 125 125 126
95 94 92 89 86 83 82 82 83 85 84 83 82 78 73 68 64 62 62 62 58 53 49 42 37 33 27 19 13 9 5 2 7 13 17 16 16 19 23 25 28 31 34 37 40 41 40 41 42 44 45 48 51 56 61 67 72 77 81 85 89 93 99 107 113 116 117 119 120 121 121 120 121 122 123 124 125 124 124 124 124 123 124 125 127
89 88 87 85 83 81 79 78 79 79 79 79 78 74 70 67 64 61 60 59 56 52 48 43 40 38 35 31 27 22 18 11 7 11 16 18 18 19 23 26 30 34 39 42 44 46 48 49 51 51 52 55 57 59 63 69 75 79 83 88 93 97 103 109 111 112 114 116 118 119 119 117 116 118 119 120 120 119 119 120 121 123 124 125 125
85 84 84 83 82 80 78 76 75 75 75 75 73 70 68 66 63 58 55 52 50 48 44 40 37 36 36 36 35 32 29 25 21 17 18 19 20 21 23 29 36 42 45 46 47 50 53 55 57 58 59 60 62 65 67 71 76 81 84 89 95 101 106 110 110 110 112 114 115 116 116 115 114 115 116 116 116 116 117 119 121 123 123 123 123
85 85 84 82 80 78 77 75 74 73 72 71 69 66 63 60 57 54 49 45 44 43 40 37 35 34 34 34 35 35 33 30 28 26 22 20 22 23 25 34 45 50 48 46 48 53 57 59 61 62 64 65 67 70 72 75 78 81 85 90 98 105 108 109 110 111 112 113 113 114 114 114 113 112 113 113 114 115 116 118 119 120 121 121 123
87 85 83 81 80 78 76 75 74 71 69 68 64 59 55 52 50 47 43 37 35 35 33 32 33 33 31 30 31 33 34 33 32 31 27 23 24 25 27 36 50 52 47 45 49 55 60 63 64 66 67 68 70 73 75 77 80 83 87 93 99 105 109 110 111 112 113 113 113 114 115 114 113 113 113 114 115 116 116 117 119 120 122 123 125
87 85 83 81 79 77 75 74 71 68 66 63 59 54 51 46 43 40 36 31 27 25 24 25 27 29 28 27 28 30 32 33 34 34 32 30 30 30 31 36 45 50 46 45 48 52 58 63 68 70 70 71 71 72 75 77 80 83 87 91 96 102 106 109 110 112 114 115 115 114 114 114 114 114 114 115 116 117 118 119 121 123 125 127 128